Time,TemperatureF,DewpointF,PressureIn,WindDirection,WindDirectionDegrees,WindSpeedMPH,WindSpeedGustMPH,Humidity,HourlyPrecipIn,Conditions,Clouds,dailyrainin,SoftwareType,DateUTC
2013-03-11 00:01:00,33.3,32.5,29.55,NNE,26,2.0,2.0,97,0.00,,---,0.00,VWS V14.00,2013-03-11 05:01:00,
2013-03-11 00:06:00,33.3,32.3,29.55,North,355,0.0,1.0,96,0.00,,---,0.00,VWS V14.00,2013-03-11 05:06:00,
2013-03-11 00:11:00,33.3,32.3,29.55,North,355,1.0,4.0,96,0.00,,---,0.00,VWS V14.00,2013-03-11 05:11:00,
2013-03-11 00:16:00,33.3,32.3,29.55,NNE,14,0.0,3.0,96,0.00,,---,0.00,VWS V14.00,2013-03-11 05:16:00,
2013-03-11 00:21:00,33.3,32.3,29.55,North,351,0.0,0.0,96,0.00,,---,0.00,VWS V14.00,2013-03-11 05:21:00,
2013-03-11 00:26:00,33.3,32.3,29.55,ENE,57,2.0,4.0,96,0.00,,---,0.00,VWS V14.00,2013-03-11 05:26:00,
2013-03-11 00:31:00,33.2,32.2,29.55,North,360,4.0,4.0,96,0.01,,---,0.01,VWS V14.00,2013-03-11 05:31:00,
2013-03-11 00:36:00,33.2,32.2,29.55,NNW,348,0.0,0.0,96,0.01,,---,0.01,VWS V14.00,2013-03-11 05:36:00,
2013-03-11 00:41:00,33.2,32.2,29.55,NNW,348,0.0,2.0,96,0.01,,---,0.01,VWS V14.00,2013-03-11 05:41:00,
2013-03-11 00:46:00,33.2,32.2,29.54,NNW,348,0.0,0.0,96,0.01,,---,0.01,VWS V14.00,2013-03-11 05:46:00,
2013-03-11 00:51:00,33.1,32.1,29.54,NE,55,0.0,1.0,96,0.01,,---,0.01,VWS V14.00,2013-03-11 05:51:00,
2013-03-11 00:56:00,33.1,32.1,29.54,North,5,0.0,0.0,96,0.01,,---,0.01,VWS V14.00,2013-03-11 05:56:00,
2013-03-11 01:01:00,33.0,32.2,29.54,North,5,0.0,2.0,97,0.01,,---,0.01,VWS V14.00,2013-03-11 06:01:00,
2013-03-11 01:06:00,33.0,32.2,29.54,North,360,0.0,0.0,97,0.01,,---,0.01,VWS V14.00,2013-03-11 06:06:00,
2013-03-11 01:11:00,32.9,32.1,29.54,NNW,332,3.0,5.0,97,0.01,,---,0.01,VWS V14.00,2013-03-11 06:11:00,
2013-03-11 01:16:00,32.9,32.1,29.54,ENE,58,0.0,0.0,97,0.01,,---,0.01,VWS V14.00,2013-03-11 06:16:00,
2013-03-11 01:22:00,32.8,32.0,29.54,NE,51,1.0,4.0,97,0.01,,---,0.01,VWS V14.00,2013-03-11 06:22:00,
2013-03-11 01:27:00,32.7,31.7,29.53,North,355,3.0,3.0,96,0.01,,---,0.01,VWS V14.00,2013-03-11 06:27:00,
2013-03-11 01:32:00,32.7,31.7,29.54,North,355,0.0,2.0,96,0.01,,---,0.01,VWS V14.00,2013-03-11 06:32:00,
2013-03-11 01:37:00,32.6,31.8,29.54,NNW,347,0.0,4.0,97,0.00,,---,0.01,VWS V14.00,2013-03-11 06:37:00,
2013-03-11 01:42:00,32.6,31.8,29.54,NW,318,4.0,4.0,97,0.00,,---,0.01,VWS V14.00,2013-03-11 06:42:00,
2013-03-11 01:47:00,32.6,31.8,29.54,North,355,2.0,4.0,97,0.00,,---,0.01,VWS V14.00,2013-03-11 06:47:00,
2013-03-11 01:52:00,32.5,31.7,29.54,North,355,0.0,0.0,97,0.00,,---,0.01,VWS V14.00,2013-03-11 06:52:00,
2013-03-11 01:57:00,32.5,31.7,29.54,North,355,0.0,2.0,97,0.00,,---,0.01,VWS V14.00,2013-03-11 06:57:00,
2013-03-11 02:02:00,32.4,31.6,29.54,NNW,333,0.0,3.0,97,0.00,,---,0.01,VWS V14.00,2013-03-11 07:02:00,
2013-03-11 02:07:00,32.3,31.5,29.54,NNW,342,2.0,5.0,97,0.00,,---,0.01,VWS V14.00,2013-03-11 07:07:00,
2013-03-11 02:12:00,32.3,31.5,29.55,NNW,342,0.0,0.0,97,0.00,,---,0.01,VWS V14.00,2013-03-11 07:12:00,
2013-03-11 02:17:00,32.2,31.5,29.55,NNW,342,0.0,0.0,97,0.00,,---,0.01,VWS V14.00,2013-03-11 07:17:00,
2013-03-11 02:22:00,32.1,31.4,29.55,NNW,346,0.0,4.0,97,0.00,,---,0.01,VWS V14.00,2013-03-11 07:22:00,
2013-03-11 02:27:00,32.1,31.4,29.54,NNW,346,0.0,2.0,97,0.00,,---,0.01,VWS V14.00,2013-03-11 07:27:00,
2013-03-11 02:32:00,32.0,31.2,29.54,NNW,346,2.0,3.0,97,0.00,,---,0.01,VWS V14.00,2013-03-11 07:32:00,
2013-03-11 02:37:00,31.9,31.1,29.54,NW,321,0.0,5.0,97,0.00,,---,0.01,VWS V14.00,2013-03-11 07:37:00,
2013-03-11 02:42:00,31.9,31.1,29.54,NNW,339,0.0,4.0,97,0.00,,---,0.01,VWS V14.00,2013-03-11 07:42:00,
2013-03-11 02:47:00,31.9,31.1,29.54,NNW,339,2.0,5.0,97,0.00,,---,0.01,VWS V14.00,2013-03-11 07:47:00,
2013-03-11 02:52:00,31.8,31.0,29.54,NNW,339,0.0,3.0,97,0.00,,---,0.01,VWS V14.00,2013-03-11 07:52:00,
2013-03-11 02:57:00,31.8,31.0,29.54,North,350,0.0,4.0,97,0.00,,---,0.01,VWS V14.00,2013-03-11 07:57:00,
2013-03-11 03:02:00,31.8,31.0,29.53,North,351,4.0,6.0,97,0.00,,---,0.01,VWS V14.00,2013-03-11 08:02:00,
2013-03-11 03:07:00,31.7,31.0,29.53,North,355,3.0,7.0,97,0.00,,---,0.01,VWS V14.00,2013-03-11 08:07:00,
2013-03-11 03:12:00,31.7,31.0,29.52,NNW,346,3.0,4.0,97,0.00,,---,0.01,VWS V14.00,2013-03-11 08:12:00,
2013-03-11 03:17:00,31.7,31.0,29.52,NNW,340,2.0,3.0,97,0.00,,---,0.01,VWS V14.00,2013-03-11 08:17:00,
2013-03-11 03:22:00,31.8,31.0,29.52,North,349,0.0,5.0,97,0.00,,---,0.01,VWS V14.00,2013-03-11 08:22:00,
2013-03-11 03:27:00,31.7,31.0,29.52,North,349,0.0,2.0,97,0.00,,---,0.01,VWS V14.00,2013-03-11 08:27:00,
2013-03-11 03:32:00,31.8,31.0,29.52,North,350,0.0,3.0,97,0.00,,---,0.01,VWS V14.00,2013-03-11 08:32:00,
2013-03-11 03:37:00,31.7,31.0,29.52,NNW,338,3.0,4.0,97,0.00,,---,0.01,VWS V14.00,2013-03-11 08:37:00,
2013-03-11 03:43:00,31.7,31.0,29.51,NNW,345,4.0,6.0,97,0.00,,---,0.01,VWS V14.00,2013-03-11 08:43:00,
2013-03-11 03:47:00,31.7,31.0,29.52,North,350,0.0,6.0,97,0.00,,---,0.01,VWS V14.00,2013-03-11 08:47:00,
2013-03-11 03:53:00,31.8,31.0,29.51,North,349,0.0,3.0,97,0.00,,---,0.01,VWS V14.00,2013-03-11 08:53:00,
2013-03-11 03:58:00,31.7,31.0,29.51,North,350,3.0,4.0,97,0.00,,---,0.01,VWS V14.00,2013-03-11 08:58:00,
2013-03-11 04:03:00,31.8,31.0,29.51,NNW,346,1.0,7.0,97,0.00,,---,0.01,VWS V14.00,2013-03-11 09:03:00,
2013-03-11 04:08:00,31.8,31.0,29.52,NNW,336,0.0,2.0,97,0.00,,---,0.01,VWS V14.00,2013-03-11 09:08:00,
2013-03-11 04:13:00,31.8,31.0,29.52,NNW,336,0.0,1.0,97,0.00,,---,0.01,VWS V14.00,2013-03-11 09:13:00,
2013-03-11 04:18:00,31.8,31.0,29.52,NNW,336,0.0,0.0,97,0.00,,---,0.01,VWS V14.00,2013-03-11 09:18:00,
2013-03-11 04:23:00,31.8,31.0,29.51,NW,313,0.0,2.0,97,0.00,,---,0.01,VWS V14.00,2013-03-11 09:23:00,
2013-03-11 04:28:00,31.7,31.0,29.52,NW,305,4.0,5.0,97,0.00,,---,0.01,VWS V14.00,2013-03-11 09:28:00,
2013-03-11 04:33:00,31.7,31.0,29.51,NNW,340,0.0,3.0,97,0.00,,---,0.01,VWS V14.00,2013-03-11 09:33:00,
2013-03-11 04:38:00,31.7,31.0,29.52,NNW,340,0.0,0.0,97,0.00,,---,0.01,VWS V14.00,2013-03-11 09:38:00,
2013-03-11 04:43:00,31.7,31.0,29.51,NNW,340,0.0,0.0,97,0.00,,---,0.01,VWS V14.00,2013-03-11 09:43:00,
2013-03-11 04:48:00,31.7,31.0,29.51,NNW,344,0.0,4.0,97,0.00,,---,0.01,VWS V14.00,2013-03-11 09:48:00,
2013-03-11 04:53:00,31.7,31.0,29.51,NNW,344,0.0,0.0,97,0.00,,---,0.01,VWS V14.00,2013-03-11 09:53:00,
2013-03-11 04:58:00,31.7,31.0,29.51,NNW,344,0.0,1.0,97,0.00,,---,0.01,VWS V14.00,2013-03-11 09:58:00,
2013-03-11 05:03:00,31.7,31.0,29.51,NNW,344,0.0,2.0,97,0.00,,---,0.01,VWS V14.00,2013-03-11 10:03:00,
2013-03-11 05:08:00,31.7,31.0,29.51,NNW,344,0.0,0.0,97,0.00,,---,0.01,VWS V14.00,2013-03-11 10:08:00,
2013-03-11 05:13:00,31.7,31.0,29.51,NNW,345,0.0,3.0,97,0.00,,---,0.01,VWS V14.00,2013-03-11 10:13:00,
2013-03-11 05:18:00,31.8,31.0,29.52,NNW,346,0.0,0.0,97,0.00,,---,0.01,VWS V14.00,2013-03-11 10:18:00,
2013-03-11 05:23:00,31.8,31.0,29.51,NNW,335,0.0,6.0,97,0.00,,---,0.01,VWS V14.00,2013-03-11 10:23:00,
2013-03-11 05:28:00,31.7,31.0,29.51,NNW,335,0.0,3.0,97,0.00,,---,0.01,VWS V14.00,2013-03-11 10:28:00,
2013-03-11 05:33:00,31.7,31.0,29.51,NNW,347,4.0,5.0,97,0.00,,---,0.01,VWS V14.00,2013-03-11 10:33:00,
2013-03-11 05:38:00,31.8,31.0,29.51,NNW,336,0.0,3.0,97,0.00,,---,0.01,VWS V14.00,2013-03-11 10:38:00,
2013-03-11 05:43:00,31.8,31.0,29.51,NW,321,2.0,2.0,97,0.00,,---,0.01,VWS V14.00,2013-03-11 10:43:00,
2013-03-11 05:48:00,31.8,31.0,29.51,North,355,0.0,3.0,97,0.00,,---,0.01,VWS V14.00,2013-03-11 10:48:00,
2013-03-11 05:53:00,31.7,31.0,29.52,NNW,327,0.0,4.0,97,0.00,,---,0.01,VWS V14.00,2013-03-11 10:53:00,
2013-03-11 05:58:00,31.7,31.0,29.52,NW,315,0.0,4.0,97,0.00,,---,0.01,VWS V14.00,2013-03-11 10:58:00,
2013-03-11 06:03:00,31.7,31.0,29.51,NNW,336,0.0,1.0,97,0.00,,---,0.01,VWS V14.00,2013-03-11 11:03:00,
2013-03-11 06:08:00,31.7,31.0,29.52,NNW,336,0.0,3.0,97,0.00,,---,0.01,VWS V14.00,2013-03-11 11:08:00,
2013-03-11 06:13:00,31.7,31.0,29.52,NNW,344,0.0,4.0,97,0.00,,---,0.01,VWS V14.00,2013-03-11 11:13:00,
2013-03-11 06:19:00,31.7,31.0,29.52,North,355,0.0,4.0,97,0.00,,---,0.01,VWS V14.00,2013-03-11 11:19:00,
2013-03-11 06:24:00,31.7,31.0,29.52,North,5,1.0,6.0,97,0.00,,---,0.01,VWS V14.00,2013-03-11 11:24:00,
2013-03-11 06:29:00,31.7,31.0,29.52,North,350,3.0,5.0,97,0.00,,---,0.01,VWS V14.00,2013-03-11 11:29:00,
2013-03-11 06:34:00,31.6,30.9,29.52,NNW,336,3.0,5.0,97,0.00,,---,0.01,VWS V14.00,2013-03-11 11:34:00,
2013-03-11 06:39:00,31.6,30.9,29.52,North,355,0.0,4.0,97,0.00,,---,0.01,VWS V14.00,2013-03-11 11:39:00,
2013-03-11 06:44:00,31.6,30.9,29.52,NNW,331,0.0,5.0,97,0.00,,---,0.01,VWS V14.00,2013-03-11 11:44:00,
2013-03-11 06:49:00,31.6,30.9,29.53,NNW,334,0.0,0.0,97,0.00,,---,0.01,VWS V14.00,2013-03-11 11:49:00,
2013-03-11 06:54:00,31.6,30.9,29.53,NNW,334,0.0,0.0,97,0.00,,---,0.01,VWS V14.00,2013-03-11 11:54:00,
2013-03-11 06:59:00,31.6,30.9,29.53,North,355,0.0,0.0,97,0.00,,---,0.01,VWS V14.00,2013-03-11 11:59:00,
2013-03-11 07:04:00,31.6,30.9,29.53,NNW,338,0.0,0.0,97,0.00,,---,0.01,VWS V14.00,2013-03-11 12:04:00,
2013-03-11 07:09:00,31.6,30.9,29.53,North,355,0.0,0.0,97,0.00,,---,0.01,VWS V14.00,2013-03-11 12:09:00,
2013-03-11 07:14:00,31.6,30.9,29.53,NNW,345,0.0,0.0,97,0.00,,---,0.01,VWS V14.00,2013-03-11 12:14:00,
2013-03-11 07:19:00,31.6,30.9,29.53,NE,55,0.0,0.0,97,0.00,,---,0.01,VWS V14.00,2013-03-11 12:19:00,
2013-03-11 07:24:00,31.6,30.9,29.53,North,355,0.0,0.0,97,0.00,,---,0.01,VWS V14.00,2013-03-11 12:24:00,
2013-03-11 07:29:00,31.6,30.9,29.53,North,355,0.0,0.0,97,0.00,,---,0.01,VWS V14.00,2013-03-11 12:29:00,
2013-03-11 07:34:00,31.6,30.9,29.53,North,9,0.0,0.0,97,0.00,,---,0.01,VWS V14.00,2013-03-11 12:34:00,
2013-03-11 07:39:00,31.5,30.8,29.53,NNW,335,0.0,0.0,97,0.00,,---,0.01,VWS V14.00,2013-03-11 12:39:00,
2013-03-11 07:44:00,31.5,30.8,29.53,NNW,342,0.0,0.0,97,0.00,,---,0.01,VWS V14.00,2013-03-11 12:44:00,
2013-03-11 07:49:00,31.5,30.8,29.53,North,351,0.0,0.0,97,0.00,,---,0.01,VWS V14.00,2013-03-11 12:49:00,
2013-03-11 07:54:00,31.5,30.8,29.53,NW,323,0.0,0.0,97,0.00,,---,0.01,VWS V14.00,2013-03-11 12:54:00,
2013-03-11 07:59:00,31.5,30.8,29.54,NNW,345,0.0,0.0,97,0.00,,---,0.01,VWS V14.00,2013-03-11 12:59:00,
2013-03-11 08:04:00,31.6,30.9,29.54,North,360,0.0,0.0,97,0.00,,---,0.01,VWS V14.00,2013-03-11 13:04:00,
2013-03-11 08:09:00,31.6,30.9,29.54,North,5,0.0,0.0,97,0.00,,---,0.01,VWS V14.00,2013-03-11 13:09:00,
2013-03-11 08:14:00,31.6,30.9,29.54,North,5,0.0,0.0,97,0.00,,---,0.01,VWS V14.00,2013-03-11 13:14:00,
2013-03-11 08:19:00,31.6,30.9,29.54,North,5,0.0,0.0,97,0.00,,---,0.01,VWS V14.00,2013-03-11 13:19:00,
2013-03-11 08:24:00,31.6,30.9,29.53,NW,325,0.0,0.0,97,0.00,,---,0.01,VWS V14.00,2013-03-11 13:24:00,
2013-03-11 08:29:00,31.6,30.9,29.53,NNW,333,0.0,0.0,97,0.00,,---,0.01,VWS V14.00,2013-03-11 13:29:00,
2013-03-11 08:34:00,31.6,30.9,29.53,NNW,333,0.0,0.0,97,0.00,,---,0.01,VWS V14.00,2013-03-11 13:34:00,
2013-03-11 08:39:00,31.6,30.9,29.53,NNW,341,0.0,0.0,97,0.00,,---,0.01,VWS V14.00,2013-03-11 13:39:00,
2013-03-11 08:44:00,31.6,30.9,29.53,NW,317,0.0,0.0,97,0.00,,---,0.01,VWS V14.00,2013-03-11 13:44:00,
2013-03-11 08:49:00,31.7,31.0,29.53,NW,317,0.0,0.0,97,0.00,,---,0.01,VWS V14.00,2013-03-11 13:49:00,
2013-03-11 08:54:00,31.6,30.9,29.53,NW,310,0.0,0.0,97,0.00,,---,0.01,VWS V14.00,2013-03-11 13:54:00,
2013-03-11 08:59:00,31.6,30.9,29.53,NNW,348,0.0,0.0,97,0.00,,---,0.01,VWS V14.00,2013-03-11 13:59:00,
2013-03-11 09:04:00,31.4,30.6,29.53,NW,325,0.0,0.0,97,0.00,,---,0.01,VWS V14.00,2013-03-11 14:04:00,
2013-03-11 09:09:00,31.4,30.6,29.53,NW,325,0.0,0.0,97,0.00,,---,0.01,VWS V14.00,2013-03-11 14:09:00,
2013-03-11 09:14:00,31.3,30.5,29.52,North,355,0.0,0.0,97,0.00,,---,0.01,VWS V14.00,2013-03-11 14:14:00,
2013-03-11 09:19:00,31.3,30.5,29.52,NNW,327,0.0,0.0,97,0.00,,---,0.01,VWS V14.00,2013-03-11 14:19:00,
2013-03-11 09:24:00,31.3,30.5,29.51,NW,313,0.0,0.0,97,0.00,,---,0.01,VWS V14.00,2013-03-11 14:24:00,
2013-03-11 09:30:00,31.2,30.5,29.51,NNW,334,0.0,0.0,97,0.00,,---,0.01,VWS V14.00,2013-03-11 14:30:00,
2013-03-11 09:35:00,31.2,30.5,29.52,NW,315,0.0,0.0,97,0.00,,---,0.01,VWS V14.00,2013-03-11 14:35:00,
2013-03-11 09:40:00,31.2,30.5,29.52,NNW,342,0.0,0.0,97,0.00,,---,0.01,VWS V14.00,2013-03-11 14:40:00,
2013-03-11 09:45:00,31.2,30.5,29.52,WNW,284,0.0,0.0,97,0.00,,---,0.01,VWS V14.00,2013-03-11 14:45:00,
2013-03-11 09:50:00,31.2,30.5,29.52,NW,325,0.0,0.0,97,0.00,,---,0.01,VWS V14.00,2013-03-11 14:50:00,
2013-03-11 09:55:00,31.1,30.4,29.52,NNW,342,0.0,0.0,97,0.00,,---,0.01,VWS V14.00,2013-03-11 14:55:00,
2013-03-11 10:00:00,31.1,30.4,29.52,WNW,300,0.0,0.0,97,0.00,,---,0.01,VWS V14.00,2013-03-11 15:00:00,
2013-03-11 10:05:00,31.0,30.2,29.52,NW,310,0.0,0.0,97,0.00,,---,0.01,VWS V14.00,2013-03-11 15:05:00,
2013-03-11 10:10:00,31.1,30.4,29.51,NNW,333,0.0,0.0,97,0.00,,---,0.01,VWS V14.00,2013-03-11 15:10:00,
2013-03-11 10:15:00,31.1,30.4,29.51,NNW,341,0.0,0.0,97,0.00,,---,0.01,VWS V14.00,2013-03-11 15:15:00,
2013-03-11 10:20:00,31.1,30.4,29.51,NNW,341,0.0,0.0,97,0.00,,---,0.01,VWS V14.00,2013-03-11 15:20:00,
2013-03-11 10:25:00,31.1,30.4,29.51,North,355,0.0,0.0,97,0.00,,---,0.01,VWS V14.00,2013-03-11 15:25:00,
2013-03-11 10:30:00,31.1,30.4,29.51,NNW,331,0.0,0.0,97,0.00,,---,0.01,VWS V14.00,2013-03-11 15:30:00,
2013-03-11 10:35:00,31.2,30.5,29.51,NW,318,0.0,0.0,97,0.00,,---,0.01,VWS V14.00,2013-03-11 15:35:00,
2013-03-11 10:40:00,31.2,30.5,29.51,NW,319,0.0,0.0,97,0.00,,---,0.01,VWS V14.00,2013-03-11 15:40:00,
2013-03-11 10:45:00,31.3,30.5,29.51,NW,318,0.0,0.0,97,0.00,,---,0.01,VWS V14.00,2013-03-11 15:45:00,
2013-03-11 10:50:00,31.3,30.5,29.50,NNW,338,0.0,0.0,97,0.00,,---,0.01,VWS V14.00,2013-03-11 15:50:00,
2013-03-11 10:55:00,31.3,30.5,29.50,NNW,338,0.0,0.0,97,0.00,,---,0.01,VWS V14.00,2013-03-11 15:55:00,
2013-03-11 11:00:00,31.4,30.6,29.50,NNW,344,0.0,0.0,97,0.00,,---,0.01,VWS V14.00,2013-03-11 16:00:00,
2013-03-11 11:05:00,31.4,30.6,29.51,NNW,341,0.0,0.0,97,0.00,,---,0.01,VWS V14.00,2013-03-11 16:05:00,
2013-03-11 11:10:00,31.5,30.5,29.50,NNW,341,0.0,0.0,96,0.00,,---,0.01,VWS V14.00,2013-03-11 16:10:00,
2013-03-11 11:15:00,31.5,30.5,29.50,NW,322,0.0,0.0,96,0.00,,---,0.01,VWS V14.00,2013-03-11 16:15:00,
2013-03-11 11:20:00,31.4,30.4,29.50,NNW,329,0.0,0.0,96,0.00,,---,0.01,VWS V14.00,2013-03-11 16:20:00,
2013-03-11 11:25:00,31.4,30.4,29.50,North,351,0.0,0.0,96,0.00,,---,0.01,VWS V14.00,2013-03-11 16:25:00,
2013-03-11 11:30:00,31.4,30.4,29.50,NNW,341,0.0,0.0,96,0.00,,---,0.01,VWS V14.00,2013-03-11 16:30:00,
2013-03-11 11:35:00,31.5,30.5,29.51,NNW,342,0.0,0.0,96,0.00,,---,0.01,VWS V14.00,2013-03-11 16:35:00,
2013-03-11 11:40:00,31.6,30.6,29.51,NNW,333,0.0,0.0,96,0.00,,---,0.01,VWS V14.00,2013-03-11 16:40:00,
2013-03-11 11:45:00,31.7,30.7,29.51,NNW,333,0.0,0.0,96,0.00,,---,0.01,VWS V14.00,2013-03-11 16:45:00,
2013-03-11 11:50:00,31.7,30.7,29.50,NNW,333,0.0,0.0,96,0.00,,---,0.01,VWS V14.00,2013-03-11 16:50:00,
2013-03-11 11:55:00,31.7,30.7,29.50,NNW,331,0.0,0.0,96,0.00,,---,0.01,VWS V14.00,2013-03-11 16:55:00,
2013-03-11 12:00:00,31.7,30.7,29.50,NNW,333,0.0,0.0,96,0.00,,---,0.01,VWS V14.00,2013-03-11 17:00:00,
2013-03-11 12:05:00,31.8,30.8,29.50,NW,312,3.0,3.0,96,0.00,,---,0.01,VWS V14.00,2013-03-11 17:05:00,
2013-03-11 12:10:00,31.8,30.5,29.51,NW,319,1.0,3.0,95,0.00,,---,0.01,VWS V14.00,2013-03-11 17:10:00,
2013-03-11 12:15:00,31.8,30.5,29.50,NW,321,2.0,2.0,95,0.00,,---,0.01,VWS V14.00,2013-03-11 17:15:00,
2013-03-11 12:20:00,31.7,30.4,29.50,NW,313,1.0,3.0,95,0.00,,---,0.01,VWS V14.00,2013-03-11 17:20:00,
2013-03-11 12:25:00,31.7,30.4,29.50,NW,317,0.0,4.0,95,0.00,,---,0.01,VWS V14.00,2013-03-11 17:25:00,
2013-03-11 12:30:00,31.8,30.5,29.50,NW,315,0.0,0.0,95,0.00,,---,0.01,VWS V14.00,2013-03-11 17:30:00,
2013-03-11 12:35:00,31.8,30.5,29.50,WNW,298,5.0,6.0,95,0.00,,---,0.01,VWS V14.00,2013-03-11 17:35:00,
2013-03-11 12:40:00,31.7,30.4,29.50,WNW,294,2.0,5.0,95,0.00,,---,0.01,VWS V14.00,2013-03-11 17:40:00,
2013-03-11 12:45:00,31.8,30.5,29.50,WNW,285,2.0,4.0,95,0.00,,---,0.01,VWS V14.00,2013-03-11 17:45:00,
2013-03-11 12:50:00,31.9,30.6,29.50,NNW,329,0.0,4.0,95,0.00,,---,0.01,VWS V14.00,2013-03-11 17:50:00,
2013-03-11 12:55:00,32.1,31.1,29.50,WNW,287,0.0,3.0,96,0.00,,---,0.01,VWS V14.00,2013-03-11 17:55:00,
2013-03-11 13:00:00,32.4,31.4,29.50,WNW,296,2.0,2.0,96,0.00,,---,0.01,VWS V14.00,2013-03-11 18:00:00,
2013-03-11 13:05:00,32.4,31.1,29.50,WNW,302,2.0,3.0,95,0.01,,---,0.02,VWS V14.00,2013-03-11 18:05:00,
2013-03-11 13:10:00,32.3,31.0,29.50,NW,309,5.0,5.0,95,0.01,,---,0.02,VWS V14.00,2013-03-11 18:10:00,
2013-03-11 13:15:00,32.3,31.0,29.50,WNW,291,3.0,5.0,95,0.01,,---,0.02,VWS V14.00,2013-03-11 18:15:00,
2013-03-11 13:20:00,32.4,31.1,29.49,WNW,294,3.0,4.0,95,0.01,,---,0.02,VWS V14.00,2013-03-11 18:20:00,
2013-03-11 13:25:00,32.5,31.2,29.49,NNW,337,3.0,5.0,95,0.01,,---,0.02,VWS V14.00,2013-03-11 18:25:00,
2013-03-11 13:30:00,32.4,31.1,29.49,NW,325,1.0,7.0,95,0.01,,---,0.02,VWS V14.00,2013-03-11 18:30:00,
2013-03-11 13:36:00,32.4,31.1,29.49,NW,313,2.0,7.0,95,0.01,,---,0.02,VWS V14.00,2013-03-11 18:36:00,
2013-03-11 13:41:00,32.3,31.0,29.49,West,277,2.0,6.0,95,0.01,,---,0.02,VWS V14.00,2013-03-11 18:41:00,
2013-03-11 13:46:00,32.2,30.9,29.49,WNW,285,1.0,3.0,95,0.01,,---,0.02,VWS V14.00,2013-03-11 18:46:00,
2013-03-11 13:51:00,32.1,30.8,29.49,NW,306,4.0,6.0,95,0.01,,---,0.02,VWS V14.00,2013-03-11 18:51:00,
2013-03-11 13:56:00,32.1,30.8,29.49,WNW,303,4.0,6.0,95,0.01,,---,0.02,VWS V14.00,2013-03-11 18:56:00,
2013-03-11 14:01:00,32.1,30.8,29.49,NW,305,2.0,5.0,95,0.01,,---,0.02,VWS V14.00,2013-03-11 19:01:00,
2013-03-11 14:06:00,32.2,30.9,29.48,West,279,3.0,9.0,95,0.00,,---,0.02,VWS V14.00,2013-03-11 19:06:00,
2013-03-11 14:11:00,32.2,30.9,29.48,NW,309,3.0,5.0,95,0.00,,---,0.02,VWS V14.00,2013-03-11 19:11:00,
2013-03-11 14:16:00,32.2,30.9,29.49,West,279,3.0,6.0,95,0.00,,---,0.02,VWS V14.00,2013-03-11 19:16:00,
2013-03-11 14:21:00,32.1,30.8,29.48,NNW,340,3.0,10.0,95,0.00,,---,0.02,VWS V14.00,2013-03-11 19:21:00,
2013-03-11 14:26:00,32.1,30.8,29.48,NW,307,5.0,7.0,95,0.00,,---,0.02,VWS V14.00,2013-03-11 19:26:00,
2013-03-11 14:32:00,32.0,30.5,29.48,North,355,0.0,6.0,94,0.00,,---,0.02,VWS V14.00,2013-03-11 19:32:00,
2013-03-11 14:37:00,32.1,30.6,29.48,WNW,294,1.0,10.0,94,0.00,,---,0.02,VWS V14.00,2013-03-11 19:37:00,
2013-03-11 14:42:00,32.0,30.5,29.48,NW,304,0.0,7.0,94,0.00,,---,0.02,VWS V14.00,2013-03-11 19:42:00,
2013-03-11 14:47:00,32.1,30.6,29.49,WNW,284,1.0,5.0,94,0.00,,---,0.02,VWS V14.00,2013-03-11 19:47:00,
2013-03-11 14:52:00,32.2,30.9,29.49,NW,307,5.0,6.0,95,0.00,,---,0.02,VWS V14.00,2013-03-11 19:52:00,
2013-03-11 14:57:00,32.3,30.8,29.48,NW,304,1.0,7.0,94,0.00,,---,0.02,VWS V14.00,2013-03-11 19:57:00,
2013-03-11 15:02:00,32.3,30.8,29.48,WNW,299,5.0,6.0,94,0.00,,---,0.02,VWS V14.00,2013-03-11 20:02:00,
2013-03-11 15:07:00,32.3,30.8,29.48,NW,317,1.0,5.0,94,0.00,,---,0.02,VWS V14.00,2013-03-11 20:07:00,
2013-03-11 15:12:00,32.3,30.5,29.48,NW,314,5.0,11.0,93,0.00,,---,0.02,VWS V14.00,2013-03-11 20:12:00,
2013-03-11 15:17:00,32.2,30.4,29.49,NW,311,2.0,9.0,93,0.00,,---,0.02,VWS V14.00,2013-03-11 20:17:00,
2013-03-11 15:22:00,32.0,30.2,29.49,North,360,3.0,9.0,93,0.00,,---,0.02,VWS V14.00,2013-03-11 20:22:00,
2013-03-11 15:27:00,32.0,30.2,29.49,West,281,6.0,7.0,93,0.00,,---,0.02,VWS V14.00,2013-03-11 20:27:00,
2013-03-11 15:32:00,31.9,30.1,29.49,WNW,294,10.0,10.0,93,0.00,,---,0.02,VWS V14.00,2013-03-11 20:32:00,
2013-03-11 15:37:00,31.9,30.4,29.49,WNW,287,5.0,6.0,94,0.00,,---,0.02,VWS V14.00,2013-03-11 20:37:00,
2013-03-11 15:42:00,31.8,30.3,29.49,WNW,303,11.0,11.0,94,0.00,,---,0.02,VWS V14.00,2013-03-11 20:42:00,
2013-03-11 15:47:00,31.7,30.2,29.49,WNW,300,3.0,6.0,94,0.00,,---,0.02,VWS V14.00,2013-03-11 20:47:00,
2013-03-11 15:52:00,31.7,30.2,29.49,WNW,292,0.0,5.0,94,0.00,,---,0.02,VWS V14.00,2013-03-11 20:52:00,
2013-03-11 15:57:00,31.7,30.4,29.50,NW,316,5.0,11.0,95,0.00,,---,0.02,VWS V14.00,2013-03-11 20:57:00,
2013-03-11 16:02:00,31.6,30.1,29.50,WNW,283,4.0,6.0,94,0.00,,---,0.02,VWS V14.00,2013-03-11 21:02:00,
2013-03-11 16:07:00,31.6,30.1,29.50,North,355,4.0,7.0,94,0.00,,---,0.02,VWS V14.00,2013-03-11 21:07:00,
2013-03-11 16:12:00,31.6,30.1,29.50,West,271,3.0,10.0,94,0.00,,---,0.02,VWS V14.00,2013-03-11 21:12:00,
2013-03-11 16:17:00,31.5,30.0,29.50,NW,311,2.0,9.0,94,0.00,,---,0.02,VWS V14.00,2013-03-11 21:17:00,
2013-03-11 16:22:00,31.5,30.0,29.50,NNW,337,7.0,7.0,94,0.00,,---,0.02,VWS V14.00,2013-03-11 21:22:00,
2013-03-11 16:27:00,31.5,30.0,29.51,West,261,3.0,8.0,94,0.00,,---,0.02,VWS V14.00,2013-03-11 21:27:00,
2013-03-11 16:32:00,31.5,30.0,29.51,NW,326,5.0,11.0,94,0.00,,---,0.02,VWS V14.00,2013-03-11 21:32:00,
2013-03-11 16:37:00,31.5,30.2,29.51,NW,325,3.0,14.0,95,0.00,,---,0.02,VWS V14.00,2013-03-11 21:37:00,
2013-03-11 16:42:00,31.5,30.0,29.51,NW,319,1.0,10.0,94,0.00,,---,0.02,VWS V14.00,2013-03-11 21:42:00,
2013-03-11 16:47:00,31.4,29.9,29.51,NW,310,0.0,11.0,94,0.00,,---,0.02,VWS V14.00,2013-03-11 21:47:00,
2013-03-11 16:53:00,31.4,30.1,29.52,NNW,327,3.0,8.0,95,0.00,,---,0.02,VWS V14.00,2013-03-11 21:53:00,
2013-03-11 16:58:00,31.4,30.1,29.52,North,355,4.0,13.0,95,0.00,,---,0.02,VWS V14.00,2013-03-11 21:58:00,
2013-03-11 17:03:00,31.4,29.9,29.52,NW,320,5.0,14.0,94,0.00,,---,0.02,VWS V14.00,2013-03-11 22:03:00,
2013-03-11 17:08:00,31.3,29.8,29.52,WNW,292,5.0,10.0,94,0.00,,---,0.02,VWS V14.00,2013-03-11 22:08:00,
2013-03-11 17:13:00,31.2,29.7,29.52,NW,311,5.0,11.0,94,0.00,,---,0.02,VWS V14.00,2013-03-11 22:13:00,
2013-03-11 17:18:00,31.2,29.7,29.52,NNW,333,5.0,10.0,94,0.00,,---,0.02,VWS V14.00,2013-03-11 22:18:00,
2013-03-11 17:23:00,31.1,29.3,29.53,NNW,346,10.0,12.0,93,0.00,,---,0.02,VWS V14.00,2013-03-11 22:23:00,
2013-03-11 17:28:00,31.1,29.3,29.53,NW,317,0.0,10.0,93,0.00,,---,0.02,VWS V14.00,2013-03-11 22:28:00,
2013-03-11 17:33:00,31.1,29.0,29.53,NW,314,10.0,13.0,92,0.00,,---,0.02,VWS V14.00,2013-03-11 22:33:00,
2013-03-11 17:38:00,31.1,29.0,29.53,WNW,295,2.0,14.0,92,0.00,,---,0.02,VWS V14.00,2013-03-11 22:38:00,
2013-03-11 17:43:00,31.1,28.8,29.53,North,5,3.0,12.0,91,0.00,,---,0.02,VWS V14.00,2013-03-11 22:43:00,
2013-03-11 17:48:00,31.2,28.9,29.53,NW,323,3.0,9.0,91,0.00,,---,0.02,VWS V14.00,2013-03-11 22:48:00,
2013-03-11 17:53:00,31.2,28.6,29.54,NW,323,5.0,10.0,90,0.00,,---,0.02,VWS V14.00,2013-03-11 22:53:00,
2013-03-11 17:58:00,31.2,28.6,29.54,NW,314,3.0,7.0,90,0.00,,---,0.02,VWS V14.00,2013-03-11 22:58:00,
2013-03-11 18:03:00,31.2,28.6,29.55,NW,307,4.0,4.0,90,0.00,,---,0.02,VWS V14.00,2013-03-11 23:03:00,
2013-03-11 18:08:00,31.2,28.3,29.55,NW,319,3.0,11.0,89,0.00,,---,0.02,VWS V14.00,2013-03-11 23:08:00,
2013-03-11 18:13:00,31.2,28.3,29.55,WNW,288,2.0,6.0,89,0.00,,---,0.02,VWS V14.00,2013-03-11 23:13:00,
2013-03-11 18:18:00,31.2,28.3,29.55,WNW,303,5.0,6.0,89,0.00,,---,0.02,VWS V14.00,2013-03-11 23:18:00,
2013-03-11 18:23:00,31.2,28.3,29.56,NW,317,3.0,11.0,89,0.00,,---,0.02,VWS V14.00,2013-03-11 23:23:00,
2013-03-11 18:28:00,31.2,28.3,29.56,WNW,298,2.0,7.0,89,0.00,,---,0.02,VWS V14.00,2013-03-11 23:28:00,
2013-03-11 18:33:00,31.2,28.3,29.57,NW,321,0.0,9.0,89,0.00,,---,0.02,VWS V14.00,2013-03-11 23:33:00,
2013-03-11 18:38:00,31.2,28.3,29.57,NW,311,9.0,12.0,89,0.00,,---,0.02,VWS V14.00,2013-03-11 23:38:00,
2013-03-11 18:43:00,31.2,28.1,29.57,NW,314,3.0,7.0,88,0.00,,---,0.02,VWS V14.00,2013-03-11 23:43:00,
2013-03-11 18:48:00,31.2,28.1,29.57,North,355,1.0,10.0,88,0.00,,---,0.02,VWS V14.00,2013-03-11 23:48:00,
2013-03-11 18:53:00,31.1,28.2,29.58,NW,313,0.0,8.0,89,0.00,,---,0.02,VWS V14.00,2013-03-11 23:53:00,
2013-03-11 18:58:00,31.1,28.2,29.58,NNW,339,0.0,7.0,89,0.00,,---,0.02,VWS V14.00,2013-03-11 23:58:00,
2013-03-11 19:03:00,31.0,28.1,29.58,NW,314,3.0,6.0,89,0.00,,---,0.02,VWS V14.00,2013-03-12 00:03:00,
2013-03-11 19:09:00,30.9,28.0,29.59,NW,305,0.0,10.0,89,0.00,,---,0.02,VWS V14.00,2013-03-12 00:09:00,
2013-03-11 19:14:00,30.8,28.2,29.59,WNW,303,3.0,8.0,90,0.00,,---,0.02,VWS V14.00,2013-03-12 00:14:00,
2013-03-11 19:19:00,30.7,28.1,29.59,NW,317,2.0,7.0,90,0.00,,---,0.02,VWS V14.00,2013-03-12 00:19:00,
2013-03-11 19:24:00,30.5,28.2,29.59,NW,311,6.0,7.0,91,0.00,,---,0.02,VWS V14.00,2013-03-12 00:24:00,
2013-03-11 19:29:00,30.4,28.1,29.60,NW,317,6.0,10.0,91,0.00,,---,0.02,VWS V14.00,2013-03-12 00:29:00,
2013-03-11 19:34:00,30.3,28.3,29.60,WNW,286,2.0,6.0,92,0.00,,---,0.02,VWS V14.00,2013-03-12 00:34:00,
2013-03-11 19:39:00,30.2,28.2,29.60,NW,318,3.0,12.0,92,0.00,,---,0.02,VWS V14.00,2013-03-12 00:39:00,
2013-03-11 19:44:00,30.1,28.1,29.60,NW,310,0.0,10.0,92,0.00,,---,0.02,VWS V14.00,2013-03-12 00:44:00,
2013-03-11 19:49:00,30.1,28.3,29.60,WNW,289,1.0,7.0,93,0.00,,---,0.02,VWS V14.00,2013-03-12 00:49:00,
2013-03-11 19:54:00,30.1,28.3,29.61,West,277,4.0,11.0,93,0.00,,---,0.02,VWS V14.00,2013-03-12 00:54:00,
2013-03-11 19:59:00,30.1,28.3,29.61,WNW,290,5.0,5.0,93,0.00,,---,0.02,VWS V14.00,2013-03-12 00:59:00,
2013-03-11 20:04:00,30.1,28.3,29.62,WNW,294,0.0,5.0,93,0.00,,---,0.02,VWS V14.00,2013-03-12 01:04:00,
2013-03-11 20:09:00,30.2,28.4,29.62,WNW,288,0.0,3.0,93,0.00,,---,0.02,VWS V14.00,2013-03-12 01:09:00,
2013-03-11 20:14:00,30.2,28.4,29.62,SW,236,3.0,3.0,93,0.00,,---,0.02,VWS V14.00,2013-03-12 01:14:00,
2013-03-11 20:19:00,30.2,28.4,29.62,West,266,0.0,3.0,93,0.00,,---,0.02,VWS V14.00,2013-03-12 01:19:00,
2013-03-11 20:24:00,30.3,28.5,29.62,West,267,0.0,3.0,93,0.00,,---,0.02,VWS V14.00,2013-03-12 01:24:00,
2013-03-11 20:29:00,30.3,28.5,29.62,NW,311,2.0,4.0,93,0.00,,---,0.02,VWS V14.00,2013-03-12 01:29:00,
2013-03-11 20:34:00,30.4,28.4,29.62,NW,321,4.0,6.0,92,0.00,,---,0.02,VWS V14.00,2013-03-12 01:34:00,
2013-03-11 20:39:00,30.5,28.5,29.62,WNW,288,4.0,5.0,92,0.00,,---,0.02,VWS V14.00,2013-03-12 01:39:00,
2013-03-11 20:44:00,30.6,28.6,29.62,WNW,290,6.0,12.0,92,0.00,,---,0.02,VWS V14.00,2013-03-12 01:44:00,
2013-03-11 20:49:00,30.6,28.3,29.63,WNW,303,3.0,11.0,91,0.00,,---,0.02,VWS V14.00,2013-03-12 01:49:00,
2013-03-11 20:54:00,30.7,28.1,29.63,NW,317,3.0,13.0,90,0.00,,---,0.02,VWS V14.00,2013-03-12 01:54:00,
2013-03-11 20:59:00,30.7,27.9,29.63,NW,315,1.0,12.0,89,0.00,,---,0.02,VWS V14.00,2013-03-12 01:59:00,
2013-03-11 21:04:00,30.7,27.9,29.64,NW,304,2.0,9.0,89,0.00,,---,0.02,VWS V14.00,2013-03-12 02:04:00,
2013-03-11 21:09:00,30.7,27.9,29.64,NW,317,3.0,7.0,89,0.00,,---,0.02,VWS V14.00,2013-03-12 02:09:00,
2013-03-11 21:14:00,30.7,27.6,29.64,NW,304,3.0,13.0,88,0.00,,---,0.02,VWS V14.00,2013-03-12 02:14:00,
2013-03-11 21:19:00,30.7,27.6,29.64,West,268,5.0,7.0,88,0.00,,---,0.02,VWS V14.00,2013-03-12 02:19:00,
2013-03-11 21:24:00,30.7,27.6,29.65,NW,306,2.0,10.0,88,0.00,,---,0.02,VWS V14.00,2013-03-12 02:24:00,
2013-03-11 21:29:00,30.7,27.6,29.65,NW,321,3.0,6.0,88,0.00,,---,0.02,VWS V14.00,2013-03-12 02:29:00,
2013-03-11 21:34:00,30.6,27.5,29.65,NW,309,0.0,6.0,88,0.00,,---,0.02,VWS V14.00,2013-03-12 02:34:00,
2013-03-11 21:39:00,30.6,27.2,29.65,NNW,328,4.0,14.0,87,0.00,,---,0.02,VWS V14.00,2013-03-12 02:39:00,
2013-03-11 21:44:00,30.5,27.1,29.65,NNW,338,0.0,9.0,87,0.00,,---,0.02,VWS V14.00,2013-03-12 02:44:00,
2013-03-11 21:49:00,30.5,26.8,29.65,WNW,300,1.0,5.0,86,0.00,,---,0.02,VWS V14.00,2013-03-12 02:49:00,
2013-03-11 21:54:00,30.4,26.7,29.66,NNW,334,2.0,7.0,86,0.00,,---,0.02,VWS V14.00,2013-03-12 02:54:00,
2013-03-11 21:59:00,30.4,26.7,29.66,WNW,298,2.0,11.0,86,0.00,,---,0.02,VWS V14.00,2013-03-12 02:59:00,
2013-03-11 22:04:00,30.3,26.6,29.66,WNW,303,1.0,9.0,86,0.00,,---,0.02,VWS V14.00,2013-03-12 03:04:00,
2013-03-11 22:09:00,30.3,26.9,29.67,WNW,300,0.0,10.0,87,0.00,,---,0.02,VWS V14.00,2013-03-12 03:09:00,
2013-03-11 22:14:00,30.2,26.8,29.67,NW,319,1.0,7.0,87,0.00,,---,0.02,VWS V14.00,2013-03-12 03:14:00,
2013-03-11 22:19:00,30.2,26.8,29.67,NW,307,1.0,9.0,87,0.00,,---,0.02,VWS V14.00,2013-03-12 03:19:00,
2013-03-11 22:24:00,30.1,26.4,29.67,WNW,294,1.0,11.0,86,0.00,,---,0.02,VWS V14.00,2013-03-12 03:24:00,
2013-03-11 22:29:00,30.1,26.4,29.67,WNW,300,3.0,14.0,86,0.00,,---,0.02,VWS V14.00,2013-03-12 03:29:00,
2013-03-11 22:34:00,30.0,26.3,29.67,West,273,6.0,9.0,86,0.00,,---,0.02,VWS V14.00,2013-03-12 03:34:00,
2013-03-11 22:39:00,30.0,26.6,29.67,WNW,284,3.0,12.0,87,0.00,,---,0.02,VWS V14.00,2013-03-12 03:39:00,
2013-03-11 22:44:00,30.0,26.3,29.67,NNW,329,10.0,12.0,86,0.00,,---,0.02,VWS V14.00,2013-03-12 03:44:00,
2013-03-11 22:49:00,29.9,26.5,29.67,WNW,284,2.0,7.0,87,0.00,,---,0.02,VWS V14.00,2013-03-12 03:49:00,
2013-03-11 22:55:00,29.8,26.1,29.67,WNW,298,7.0,11.0,86,0.00,,---,0.02,VWS V14.00,2013-03-12 03:55:00,
2013-03-11 23:00:00,29.7,26.0,29.68,West,264,2.0,12.0,86,0.00,,---,0.02,VWS V14.00,2013-03-12 04:00:00,
2013-03-11 23:05:00,29.6,25.9,29.68,WNW,302,7.0,7.0,86,0.00,,---,0.02,VWS V14.00,2013-03-12 04:05:00,
2013-03-11 23:10:00,29.4,25.7,29.68,NW,320,2.0,5.0,86,0.00,,---,0.02,VWS V14.00,2013-03-12 04:10:00,
2013-03-11 23:15:00,29.3,25.4,29.69,NW,306,10.0,12.0,85,0.00,,---,0.02,VWS V14.00,2013-03-12 04:15:00,
2013-03-11 23:20:00,29.2,25.3,29.69,NW,325,2.0,2.0,85,0.00,,---,0.02,VWS V14.00,2013-03-12 04:20:00,
2013-03-11 23:25:00,29.2,25.3,29.69,NW,316,1.0,3.0,85,0.00,,---,0.02,VWS V14.00,2013-03-12 04:25:00,
2013-03-11 23:30:00,29.1,25.2,29.69,NNW,333,4.0,4.0,85,0.00,,---,0.02,VWS V14.00,2013-03-12 04:30:00,
2013-03-11 23:35:00,29.0,25.1,29.69,WNW,300,0.0,2.0,85,0.00,,---,0.02,VWS V14.00,2013-03-12 04:35:00,
2013-03-11 23:40:00,29.0,25.1,29.69,NW,309,3.0,4.0,85,0.00,,---,0.02,VWS V14.00,2013-03-12 04:40:00,
2013-03-11 23:45:00,29.0,25.4,29.69,NW,315,1.0,1.0,86,0.00,,---,0.02,VWS V14.00,2013-03-12 04:45:00,
2013-03-11 23:50:00,29.0,25.4,29.69,North,355,9.0,11.0,86,0.00,,---,0.02,VWS V14.00,2013-03-12 04:50:00,
2013-03-11 23:55:00,29.0,25.1,29.69,NW,304,7.0,7.0,85,0.00,,---,0.02,VWS V14.00,2013-03-12 04:55:00,